Location: Unspecified
(19.4326°N, 99.1332°W)
Time: 02:23:29
(UTC-05:00)

Hubble Space Telescope - Visible Passes

Search period start: 20 September 2017 00:00
Search period end: 30 September 2017 00:00
Orbit: 538 x 541 km, 28.5° (Epoch: 19 September)

Date Brightness Start Highest point End Pass type
(mag) Time Alt. Az. Time Alt. Az. Time Alt. Az.
24 Sep 3.4 06:41:16 10° S 06:43:19 13° SSE 06:45:21 10° ESE visible
25 Sep 3.1 06:30:14 10° SSW 06:33:07 18° SSE 06:36:01 10° ESE visible
26 Sep 2.6 06:19:48 11° SSW 06:22:56 25° SSE 06:26:20 10° E visible
27 Sep 2.1 06:10:42 21° SSW 06:12:45 33° SSE 06:16:30 10° E visible
28 Sep 1.5 06:01:32 36° SSW 06:02:35 45° SSE 06:06:32 10° E visible
29 Sep 0.9 05:52:18 62° SSE 05:52:24 62° SSE 05:56:30 10° ENE visible
